Overview Statistics Trail Chart Weather Telemetry Raw packets
 

This is the latest recevied weather packets stored in our database for station/object DP0GVN-13. If no packets are shown the sender has not sent any weather packets the latest 10 day(s).

<< 11 12 13 14 15 16 17 >>
Time Temp. Humidity Pressure Rain* Wind** Luminosity Snow
1777599012 -36.67° C 73% 982.8 hPa - - 0 W/m² -
1777597212 -36.67° C 71% 982.6 hPa - - 0 W/m² -
1777595418 -35.56° C 70% 982.3 hPa - - 0 W/m² -
1777593612 -35.56° C 73% 982 hPa - - 0 W/m² -
1777591812 -35.56° C 73% 981.8 hPa - - 0 W/m² -
1777590012 -36.67° C 73% 981.5 hPa - - 0 W/m² -
1777588212 -35.56° C 71% 981.4 hPa - - 0 W/m² -
1777586412 -35.56° C 74% 981.3 hPa - - 0 W/m² -
1777584612 -35.56° C 71% 981.1 hPa - - 0 W/m² -
1777582812 -35° C 72% 980.7 hPa - - 0 W/m² -
1777581012 -33.89° C 76% 980.6 hPa - - 0 W/m² -
1777579212 -35° C 74% 980.2 hPa - - 0 W/m² -
1777577412 -35° C 73% 980.1 hPa - - 0 W/m² -
1777575612 -35.56° C 72% 980 hPa - - 0 W/m² -
1777573812 -35° C 70% 979.8 hPa - - 0 W/m² -
1777572012 -35° C 74% 979.6 hPa - - 0 W/m² -
1777570214 -33.89° C 73% 979.2 hPa - - 0 W/m² -
1777568412 -33.89° C 74% 979.3 hPa - - 0 W/m² -
1777566612 -33.89° C 74% 979 hPa - - 0 W/m² -
1777564812 -32.78° C 75% 978.9 hPa - - 0 W/m² -
1777563012 -32.78° C 77% 978.8 hPa - - 0 W/m² -
1777561212 -31.67° C 81% 978.8 hPa - - 1 W/m² -
1777559412 -30° C 79% 978.8 hPa - - 0 W/m² -
1777557612 -30° C 78% 978.6 hPa - - 1 W/m² -
1777555812 -30° C 80% 978.6 hPa - - 1 W/m² -

* Rain since midnight (hover to see other rain measurements)
** Current wind speed in m/s (hover to see current wind gust speed)